Regional Weather Roundup
Issued by NWS

Home | Current Version | Previous Version | Text Only | Print | Product List | Glossary Off
Versions: 1 2 3 4 5 6 7 8 9 10 11 12 13 14 15 16 17 18 19 20 21 22 23 24 25 26 27 28 29 30 31 32 33 34 35 36 37 38 39 40 41 42 43 44 45 46 47 48 49 50

000
ASUS43 KBIS 070610
RWRND

NORTH DAKOTA REGIONAL WEATHER ROUNDUP
NATIONAL WEATHER SERVICE BISMARCK ND
100 AM CDT TUE JUL 07 2015

NOTE: "FAIR" INDICATES FEW OR NO CLOUDS BELOW 12,000 FEET WITH NO
SIGNIFICANT WEATHER AND/OR OBSTRUCTIONS TO VISIBILITY.


NDZ001>003-009>011-017-070700-
NORTHWEST NORTH DAKOTA

CITY           SKY/WX    TMP DP  RH WIND       PRES   REMARKS
WILLISTON      CLEAR     55  45  68 CALM      30.17S
6HR MIN TEMP:  51; 6HR MAX TEMP:  72;

MINOT          CLEAR     52  46  80 SW3       30.17R
MINOT AFB      CLEAR     47  47  99 S3        30.16R
$$

NDZ018>021-031>035-040>046-070700-
SOUTHWEST NORTH DAKOTA

CITY           SKY/WX    TMP DP  RH WIND       PRES   REMARKS
BISMARCK       CLEAR     51  49  92 E3        30.20R
6HR MIN TEMP:  51; 6HR MAX TEMP:  69;

DICKINSON      CLEAR     52  49  89 SE7       30.18S FOG
GARRISON         N/A     51  48  89 CALM      30.18R
6HR MIN TEMP:  50; 6HR MAX TEMP:  68;

HETTINGER ARPT CLEAR     55  51  86 E9        30.21R FOG
$$

NDZ004>008-012>016-024-026-027-054-070700-
NORTHEAST NORTH DAKOTA

CITY           SKY/WX    TMP DP  RH WIND       PRES   REMARKS
GRAND FORKS    CLEAR     47  45  93 W7        30.16R
GRND FRKS AFB  CLEAR     46  44  93 W3        30.17R
DEVILS LAKE    CLEAR     54  45  71 SE5       30.17R
$$

NDZ022-023-025-028>030-036>039-047>053-070700-
SOUTHEAST NORTH DAKOTA

CITY           SKY/WX    TMP DP  RH WIND       PRES   REMARKS
FARGO          CLEAR     52  45  77 NW3       30.16S
6HR MIN TEMP:  50; 6HR MAX TEMP:  65;

JAMESTOWN      CLEAR     52  48  86 E5        30.19R
$$



USA.gov is the U.S. government's official web portal to all federal, state and local government web resources and services.